Location: Saint Louis
(38.6272°N, 90.1978°W)
Time: 19:14:52
(UTC-05:00)

ISS - Pass Details

Date: 18 June 2013
Orbit: 401 x 404 km, 51.6° (Epoch: 24 July)

Event Time Altitude Azimuth Distance (km) Brightness Sun altitude
Rises 21:50:44 0° 317° (NW) 2,365 2.6 -13.5°
Reaches altitude 10° 21:53:23 10° 339° (NNW) 1,494 0.7 -13.8°
Maximum altitude 21:55:39 17° 22° (NNE) 1,143 -0.8 -14.1°
Drops below altitude 10° 21:57:55 10° 65° (ENE) 1,481 -0.7 -14.4°
Enters shadow 21:58:28 - 71° (ENE) 1,642 -0.5 -14.5°
